N3WXO-1 Weather Reports


Display with metric or nautical units.
time (UTC)temp
F
wind
direction
speed
MPH
gust
MPH
rain 1hr
in
rain 24hr
in
rain mn
in
humidity
%
barometer
mb
20260506015526 71 225 0.0 0.0 0.00 0.08 0.08 51 1009.1
20260506015015 72 225 0.0 1.0 0.00 0.08 0.08 50 1009.1
20260506014527 72 225 0.0 2.0 0.00 0.08 0.08 48 1009.0
20260506014020 73 224 0.0 1.0 0.00 0.08 0.08 48 1009.0
20260506013531 73 224 0.0 5.0 0.00 0.08 0.08 48 1008.9
20260506013031 74 226 1.0 5.0 0.00 0.08 0.08 46 1008.9
20260506012526 74 191 0.0 3.0 0.00 0.08 0.08 46 1008.9
20260506012022 74 183 0.0 2.0 0.00 0.08 0.08 46 1008.7
20260506011520 74 182 0.0 5.0 0.00 0.08 0.08 46 1008.7
20260506011028 74 179 1.0 5.0 0.00 0.08 0.08 45 1008.6
20260506010519 75 212 0.0 5.0 0.00 0.08 0.08 46 1008.5
20260506010013 75 211 1.0 5.0 0.00 0.08 0.08 45 1008.4
20260506005527 75 196 1.0 5.0 0.00 0.08 0.08 44 1008.4
20260506005021 75 202 0.0 10.0 0.00 0.08 0.08 45 1008.3
20260506004518 75 205 2.0 10.0 0.00 0.08 0.08 44 1008.3
20260506004015 75 207 2.0 9.0 0.00 0.08 0.08 44 1008.2
20260506003529 75 241 2.0 7.0 0.00 0.08 0.08 44 1008.2
20260506003025 75 228 0.0 4.0 0.00 0.08 0.08 44 1008.2
20260506002519 75 222 0.0 5.0 0.00 0.08 0.08 44 1008.2
20260506002028 76 223 1.0 8.0 0.00 0.08 0.08 44 1008.2
20260506001520 76 250 2.0 9.0 0.00 0.08 0.08 43 1008.1
20260506001025 76 201 1.0 9.0 0.00 0.08 0.08 42 1008.0
20260506000514 77 207 1.0 10.0 0.00 0.08 0.08 42 1008.0
20260506000025 77 235 4.0 10.0 0.00 0.08 0.08 41 1007.9
20260505235517 78 139 0.0 8.0 0.00 0.08 0.08 41 1007.9
20260505235029 78 203 2.0 8.0 0.00 0.08 0.08 42 1007.8
20260505234519 78 184 1.0 8.0 0.00 0.08 0.08 42 1007.8
20260505234030 78 227 3.0 9.0 0.00 0.08 0.08 41 1007.8
20260505233520 78 225 1.0 12.0 0.00 0.08 0.08 42 1007.7
20260505233022 78 236 6.0 12.0 0.00 0.08 0.08 41 1007.7
20260505232533 78 195 2.0 11.0 0.00 0.08 0.08 42 1007.6
20260505232023 78 230 3.0 14.0 0.00 0.08 0.08 41 1007.6
20260505231530 78 170 3.0 14.0 0.00 0.08 0.08 41 1007.5
20260505231018 78 219 2.0 10.0 0.00 0.08 0.08 42 1007.6
20260505230530 78 219 1.0 18.0 0.00 0.08 0.08 42 1007.7
20260505230026 78 178 4.0 18.0 0.00 0.08 0.08 41 1007.5
20260505225518 78 225 1.0 9.0 0.00 0.08 0.08 42 1007.5
20260505225017 78 217 2.0 10.0 0.00 0.08 0.08 41 1007.5
20260505224531 79 246 3.0 10.0 0.00 0.08 0.08 41 1007.4
20260505224023 79 220 0.0 6.0 0.00 0.08 0.08 39 1007.3
20260505223518 79 215 2.0 10.0 0.00 0.08 0.08 38 1007.2
20260505223035 79 218 6.0 16.0 0.00 0.08 0.08 38 1007.2
20260505222523 79 226 7.0 16.0 0.00 0.08 0.08 38 1007.4
20260505222019 79 233 7.0 17.0 0.00 0.08 0.08 37 1007.3
20260505221513 79 213 3.0 19.0 0.00 0.08 0.08 37 1007.3
20260505221028 79 214 6.0 14.0 0.00 0.08 0.08 37 1007.1
20260505220520 79 240 6.0 16.0 0.00 0.08 0.08 38 1007.1
20260505220029 79 215 9.0 17.0 0.00 0.08 0.08 37 1007.0
20260505215521 79 255 6.0 12.0 0.00 0.08 0.08 38 1006.9
20260505215030 79 226 6.0 13.0 0.00 0.08 0.08 39 1007.0
20260505214522 79 231 1.0 8.0 0.00 0.08 0.08 41 1007.0
20260505214032 79 211 1.0 11.0 0.00 0.08 0.08 40 1007.0
20260505213028 79 220 2.0 13.0 0.00 0.08 0.08 42 1007.1
20260505212521 79 201 1.0 13.0 0.00 0.08 0.08 41 1007.2
20260505212029 79 226 1.0 22.0 0.00 0.08 0.08 42 1007.1
20260505211520 80 76 4.0 22.0 0.00 0.08 0.08 41 1007.0
20260505211032 80 188 10.0 22.0 0.00 0.08 0.08 39 1007.1
20260505210516 81 230 3.0 18.0 0.00 0.08 0.08 40 1007.0
20260505210027 82 230 4.0 18.0 0.00 0.08 0.08 39 1007.0
20260505205516 82 220 4.0 17.0 0.00 0.08 0.08 39 1007.0
20260505205027 82 223 7.0 15.0 0.00 0.08 0.08 38 1007.0
20260505204521 83 159 5.0 14.0 0.00 0.08 0.08 39 1006.9
20260505204030 83 210 5.0 20.0 0.00 0.08 0.08 39 1007.1
20260505203514 83 198 9.0 20.0 0.00 0.08 0.08 39 1007.0
20260505203027 83 237 5.0 15.0 0.00 0.08 0.08 40 1007.1
20260505202541 83 173 7.0 15.0 0.00 0.08 0.08 39 1007.0
20260505202021 83 227 2.0 19.0 0.00 0.08 0.08 40 1007.0
20260505201515 83 204 9.0 19.0 0.00 0.08 0.08 39 1006.9
20260505201024 83 149 2.0 19.0 0.00 0.08 0.08 39 1006.9
20260505200526 82 193 7.0 19.0 0.00 0.08 0.08 38 1007.0
20260505200035 82 220 2.0 20.0 0.00 0.08 0.08 39 1006.9
20260505195520 81 248 9.0 24.0 0.00 0.08 0.08 36 1007.0
20260505195027 82 226 9.0 26.0 0.00 0.08 0.08 36 1007.1
20260505194514 82 229 9.0 30.0 0.00 0.08 0.08 36 1007.3
20260505194021 81 243 8.0 23.0 0.00 0.08 0.08 37 1007.4
20260505193529 81 232 7.0 17.0 0.00 0.08 0.08 37 1007.6
20260505193018 81 217 8.0 24.0 0.00 0.08 0.08 38 1007.5
20260505192525 81 229 10.0 24.0 0.00 0.08 0.08 35 1007.6
20260505192032 82 247 7.0 21.0 0.00 0.08 0.08 37 1007.7
20260505191544 82 208 9.0 23.0 0.00 0.08 0.08 36 1007.6
20260505191015 82 248 13.0 23.0 0.00 0.08 0.08 34 1007.6
20260505190520 82 231 5.0 23.0 0.00 0.08 0.08 38 1007.5
20260505190015 82 217 10.0 19.0 0.00 0.08 0.08 36 1007.8
20260505180521 82 228 8.0 25.0 0.00 0.08 0.08 40 1008.3
20260505180035 81 211 7.0 14.0 0.00 0.08 0.08 41 1008.4
20260505175521 81 266 7.0 18.0 0.00 0.08 0.08 39 1008.4
20260505175028 81 230 9.0 15.0 0.00 0.08 0.08 40 1008.5
20260505174522 81 224 6.0 19.0 0.00 0.08 0.08 41 1008.6
20260505174015 80 242 6.0 24.0 0.00 0.08 0.08 40 1008.8
20260505173524 80 188 9.0 30.0 0.00 0.08 0.08 40 1008.8
20260505173014 79 153 12.0 30.0 0.00 0.08 0.08 39 1008.7
20260505172522 79 257 6.0 15.0 0.00 0.08 0.08 46 1008.7
20260505172029 78 205 4.0 13.0 0.00 0.08 0.08 47 1008.8
20260505171521 78 260 4.0 10.0 0.00 0.08 0.08 47 1008.9
20260505171023 78 234 5.0 15.0 0.00 0.08 0.08 47 1008.8
20260505170534 78 227 7.0 15.0 0.00 0.08 0.08 47 1008.9
20260505170023 78 240 5.0 13.0 0.00 0.08 0.08 47 1008.9
20260505165528 79 279 3.0 14.0 0.00 0.08 0.08 48 1008.9
20260505165017 79 259 5.0 14.0 0.00 0.08 0.08 49 1008.9
20260505164529 79 261 7.0 14.0 0.00 0.08 0.08 47 1009.0
20260505164019 78 250 7.0 12.0 0.00 0.08 0.08 50 1009.2
20260505163514 78 245 5.0 17.0 0.00 0.08 0.08 50 1009.4
20260505163020 78 265 7.0 21.0 0.00 0.08 0.08 49 1009.6
20260505162522 78 246 8.0 21.0 0.00 0.08 0.08 49 1009.6
20260505162026 78 214 7.0 16.0 0.00 0.08 0.08 50 1009.7
20260505161516 78 232 4.0 16.0 0.00 0.08 0.08 48 1009.7
20260505161024 78 241 5.0 14.0 0.00 0.08 0.08 52 1009.8
20260505160533 78 214 7.0 15.0 0.00 0.08 0.08 49 1009.8
20260505153028 76 263 4.0 13.0 0.00 0.08 0.08 53 1010.0
20260505152517 76 233 5.0 13.0 0.00 0.08 0.08 53 1010.1
20260505152024 75 241 2.0 9.0 0.00 0.08 0.08 54 1010.1
20260505151528 75 202 2.0 10.0 0.00 0.08 0.08 56 1010.1
20260505151015 74 239 4.0 10.0 0.00 0.08 0.08 57 1010.3
20260505150525 73 216 2.0 7.0 0.00 0.08 0.08 60 1010.3
20260505140528 68 340 0.0 0.0 0.00 0.08 0.08 75 1010.8
20260505125013 56 344 0.0 0.0 0.00 0.08 0.08 96 1011.3
20260505124521 56 345 0.0 2.0 0.00 0.08 0.08 97 1011.2
20260505124030 55 345 0.0 2.0 0.00 0.08 0.08 97 1011.1
20260505123525 55 343 0.0 0.0 0.00 0.08 0.08 96 1011.0
20260505123017 54 343 0.0 0.0 0.00 0.08 0.08 97 1011.0
20260505122525 54 343 0.0 0.0 0.00 0.08 0.08 96 1011.0
20260505122032 53 343 0.0 0.0 0.00 0.08 0.08 96 1011.0
20260505121518 53 343 0.0 0.0 0.00 0.08 0.08 96 1011.1
20260505121021 53 343 0.0 0.0 0.00 0.08 0.08 96 1011.1
20260505120529 52 343 0.0 0.0 0.00 0.08 0.08 96 1011.2
20260505120018 52 343 0.0 0.0 0.00 0.08 0.08 96 1011.1
20260505115528 52 343 0.0 0.0 0.00 0.08 0.08 96 1011.1
20260505115015 51 343 0.0 0.0 0.00 0.08 0.08 96 1011.2
20260505114524 51 343 0.0 0.0 0.00 0.08 0.08 96 1011.3
20260505114013 51 343 0.0 0.0 0.00 0.08 0.08 96 1011.1
20260505113520 51 343 0.0 0.0 0.00 0.08 0.08 96 1011.0
20260505113029 51 343 0.0 0.0 0.00 0.08 0.08 96 1011.1
20260505112535 50 343 0.0 0.0 0.00 0.08 0.08 96 1011.0
20260505112021 50 343 0.0 0.0 0.00 0.08 0.08 95 1011.0
20260505111531 50 343 0.0 0.0 0.00 0.08 0.08 95 1010.9
20260505111038 50 343 0.0 0.0 0.00 0.08 0.08 95 1010.7
20260505110520 50 343 0.0 0.0 0.00 0.08 0.08 95 1010.7
20260505102036 49 343 0.0 0.0 0.00 0.08 0.08 94 1010.6
20260505101519 49 343 0.0 0.0 0.00 0.08 0.08 94 1010.7
20260505101032 49 343 0.0 0.0 0.00 0.08 0.08 94 1010.6
20260505100538 49 343 0.0 0.0 0.00 0.08 0.08 94 1010.5
20260505100029 50 343 0.0 0.0 0.00 0.08 0.08 94 1010.4
20260505095540 50 343 0.0 0.0 0.00 0.08 0.08 94 1010.4
20260505095024 50 343 0.0 0.0 0.00 0.08 0.08 94 1010.4
20260505094532 50 343 0.0 0.0 0.00 0.08 0.08 94 1010.2
20260505094023 50 343 0.0 0.0 0.02 0.08 0.08 93 1010.3
20260505093532 50 343 0.0 0.0 0.04 0.08 0.08 94 1010.2
20260505093033 50 343 0.0 0.0 0.05 0.08 0.08 93 1010.2
20260505092522 51 343 0.0 0.0 0.08 0.08 0.08 93 1010.1
20260505092030 51 343 0.0 0.0 0.08 0.08 0.08 93 1010.1
20260505091537 51 343 0.0 0.0 0.08 0.08 0.08 93 1010.1
20260505091025 51 343 0.0 0.0 0.08 0.08 0.08 93 1010.1
20260505090538 51 343 0.0 0.0 0.08 0.08 0.08 93 1010.1
20260505090030 51 343 0.0 0.0 0.08 0.08 0.08 93 1009.9
20260505085535 51 343 0.0 3.0 0.08 0.08 0.08 92 1009.9
20260505085024 51 343 1.0 5.0 0.08 0.08 0.08 92 1010.0
20260505084534 51 336 2.0 5.0 0.08 0.08 0.08 91 1010.1
20260505084022 51 192 0.0 2.0 0.06 0.06 0.06 90 1010.4
20260505083531 51 192 0.0 2.0 0.04 0.04 0.04 90 1010.9
20260505083019 51 191 0.0 0.0 0.03 0.03 0.03 89 1010.8
20260505082526 51 191 0.0 0.0 0.00 0.00 0.00 88 1011.0
20260505082034 51 191 0.0 0.0 0.00 0.00 0.00 88 1010.9
20260505081520 51 191 0.0 0.0 0.00 0.00 0.00 87 1010.8
20260505081027 51 191 0.0 0.0 0.00 0.00 0.00 86 1010.7
20260505080531 51 191 0.0 0.0 0.00 0.00 0.00 86 1010.4
20260505080022 51 191 0.0 0.0 0.00 0.00 0.00 85 1010.3
20260505075518 51 191 0.0 0.0 0.00 0.00 0.00 84 1010.2
20260505075027 51 191 0.0 0.0 0.00 0.00 0.00 84 1010.1
20260505074526 51 191 0.0 0.0 0.00 0.00 0.00 84 1010.0
20260505074038 51 191 0.0 0.0 0.00 0.00 0.00 84 1009.9
20260505073529 51 191 0.0 0.0 0.00 0.00 0.00 85 1009.9
20260505073036 51 191 0.0 0.0 0.00 0.00 0.00 85 1010.0
20260505072520 51 191 0.0 0.0 0.00 0.00 0.00 85 1009.9
20260505072027 51 191 0.0 0.0 0.00 0.00 0.00 85 1009.9
20260505071532 51 191 0.0 0.0 0.00 0.00 0.00 85 1009.9
20260505071039 51 191 0.0 0.0 0.00 0.00 0.00 85 1009.9
20260505070529 51 191 0.0 0.0 0.00 0.00 0.00 84 1010.1
20260505070023 51 191 0.0 0.0 0.00 0.00 0.00 84 1010.1
20260505065523 51 191 0.0 0.0 0.00 0.00 0.00 84 1010.0
20260505065035 51 191 0.0 0.0 0.00 0.00 0.00 83 1010.0
20260505064524 51 191 0.0 0.0 0.00 0.00 0.00 83 1010.0
20260505064034 51 191 0.0 0.0 0.00 0.00 0.00 83 1010.0
20260505063525 51 191 0.0 0.0 0.00 0.00 0.00 83 1009.9
20260505063030 51 191 0.0 0.0 0.00 0.00 0.00 83 1010.0
20260505062520 51 191 0.0 0.0 0.00 0.00 0.00 83 1010.0
20260505062037 51 191 0.0 0.0 0.00 0.00 0.00 83 1010.0
20260505061531 51 191 0.0 0.0 0.00 0.00 0.00 83 1010.1
20260505061025 51 191 0.0 0.0 0.00 0.00 0.00 83 1010.2
20260505060519 51 191 0.0 0.0 0.00 0.00 0.00 83 1010.2
20260505060035 51 191 0.0 0.0 0.00 0.00 0.00 82 1010.2
20260505055530 51 191 0.0 0.0 0.00 0.00 0.00 82 1010.2
20260505055027 51 191 0.0 0.0 0.00 0.00 0.00 82 1010.3
20260505054522 51 191 0.0 0.0 0.00 0.00 0.00 82 1010.3
20260505054036 51 191 0.0 0.0 0.00 0.00 0.00 82 1010.3
20260505053531 51 191 0.0 0.0 0.00 0.00 0.00 82 1010.2
20260505053027 52 191 0.0 0.0 0.00 0.00 0.00 81 1010.2
20260505052525 51 191 0.0 0.0 0.00 0.00 0.00 81 1010.1
20260505052020 52 191 0.0 0.0 0.00 0.00 0.00 81 1010.1
20260505051536 52 191 0.0 0.0 0.00 0.00 0.00 81 1010.0
20260505051027 52 191 0.0 0.0 0.00 0.00 0.00 80 1010.0
20260505050528 52 191 0.0 0.0 0.00 0.00 0.00 80 1010.0
20260505041535 53 191 0.0 0.0 0.00 0.00 0.00 77 1009.8
20260505041026 54 191 0.0 0.0 0.00 0.00 0.00 76 1009.9
20260505040521 54 191 0.0 0.0 0.00 0.00 0.00 75 1009.8
20260505040037 54 191 0.0 0.0 0.00 0.00 0.00 75 1009.8
20260505035531 54 191 0.0 0.0 0.00 0.00 0.00 73 1009.7
20260505035030 55 191 0.0 0.0 0.00 0.00 0.00 72 1009.6
20260505034525 55 191 0.0 0.0 0.00 0.00 0.00 72 1009.6
20260505034022 55 191 0.0 0.0 0.00 0.00 0.00 71 1009.7
20260505033535 55 191 0.0 0.0 0.00 0.00 0.00 70 1009.7
20260505033030 56 191 0.0 0.0 0.00 0.00 0.00 69 1009.7
20260505032525 56 191 0.0 0.0 0.00 0.00 0.00 70 1009.8
20260505032020 56 191 0.0 0.0 0.00 0.00 0.00 70 1009.8
20260505031538 56 191 0.0 0.0 0.00 0.00 0.00 67 1009.8
20260505031033 57 191 0.0 0.0 0.00 0.00 0.00 67 1009.8
20260505030528 57 191 0.0 0.0 0.00 0.00 0.00 67 1009.9
20260505030025 58 191 0.0 0.0 0.00 0.00 0.00 67 1009.9
20260505025519 58 191 0.0 0.0 0.00 0.00 0.00 65 1009.9
20260505025031 58 191 0.0 0.0 0.00 0.00 0.00 64 1010.0
20260505024528 59 191 0.0 0.0 0.00 0.00 0.00 64 1009.9
20260505024025 59 191 0.0 0.0 0.00 0.00 0.00 62 1010.0
20260505023520 59 191 0.0 0.0 0.00 0.00 0.00 61 1010.1
20260505023036 60 191 0.0 0.0 0.00 0.00 0.00 62 1010.1
20260505022528 60 191 0.0 0.0 0.00 0.00 0.00 60 1010.0
20260505022023 60 191 0.0 0.0 0.00 0.00 0.00 59 1010.0
20260505021534 61 191 0.0 0.0 0.00 0.00 0.00 58 1010.1
20260505021027 61 191 0.0 0.0 0.00 0.00 0.00 57 1010.1
20260505020520 61 191 0.0 0.0 0.00 0.00 0.00 56 1010.2
20260505020037 62 191 0.0 0.0 0.00 0.00 0.00 56 1010.2